User: anonymous
Location: Ostrava
(49.8330°N, 18.2830°E)
Time: 08:44:07
(UTC+02:00)
Language:

Iridium 7 - Orbit

View from above orbital plane
View from above orbital plane
View from above satellite
View from above satellite

Ground track
Ground track

The orbit data is extracted from the following two-line orbital elements,

1 24793U 97020B   14244.50709361  .00000203  00000-0  65471-4 0  9519
2 24793 086.3985 025.1330 0002189 110.4140 318.8592 14.34222042907041
Epoch (UTC): 01 September 2014 12:10:12
Eccentricity: 0.0002189
inclination: 86.3985°
perigee height: 776 km
apogee height: 779 km
right ascension of ascending node: 25.1330°
argument of perigee: 110.4140°
revolutions per day: 14.34222042
mean anomaly at epoch: 318.8592°
orbit number at epoch: 90704

The dashed part of the orbit path shows where the satellite is in the earth's shadow,  

DLR